TimeEST,TemperatureF,Dew PointF,Humidity,Sea Level PressureIn,VisibilityMPH,Wind Direction,Wind SpeedMPH,Gust SpeedMPH,PrecipitationIn,Events,Conditions,WindDirDegrees,DateUTC
12:53 AM,42.1,37.0,82,29.92,10.0,Calm,Calm,-,0.00,,Overcast,0,2013-02-11 05:53:00
1:53 AM,41.0,37.9,89,29.91,9.0,West,6.9,-,0.00,Rain,Light Rain,270,2013-02-11 06:53:00
2:53 AM,42.1,39.0,89,29.88,10.0,Calm,Calm,-,0.00,Rain,Light Rain,0,2013-02-11 07:53:00
3:53 AM,41.0,39.0,93,29.86,8.0,Calm,Calm,-,0.00,,Overcast,0,2013-02-11 08:53:00
4:53 AM,46.0,41.0,83,29.85,10.0,South,4.6,-,N/A,,Overcast,170,2013-02-11 09:53:00
5:53 AM,51.1,43.0,74,29.84,10.0,SSW,9.2,-,N/A,,Overcast,210,2013-02-11 10:53:00
6:53 AM,52.0,44.1,74,29.85,10.0,SW,5.8,-,0.00,,Overcast,230,2013-02-11 11:53:00
7:53 AM,51.1,45.0,80,29.85,10.0,SSW,8.1,-,0.03,,Overcast,210,2013-02-11 12:53:00
8:53 AM,55.0,46.9,74,29.84,10.0,SSW,17.3,25.3,N/A,,Scattered Clouds,210,2013-02-11 13:53:00
9:53 AM,57.9,46.9,67,29.81,10.0,SW,21.9,31.1,N/A,,Partly Cloudy,220,2013-02-11 14:53:00
10:53 AM,59.0,46.0,62,29.80,10.0,SW,17.3,33.4,N/A,,Scattered Clouds,230,2013-02-11 15:53:00
11:53 AM,60.1,41.0,49,29.77,10.0,SW,18.4,28.8,N/A,,Scattered Clouds,230,2013-02-11 16:53:00
12:53 PM,62.1,33.1,34,29.75,10.0,WSW,27.6,35.7,N/A,,Partly Cloudy,250,2013-02-11 17:53:00
1:53 PM,60.1,28.9,31,29.74,10.0,WSW,28.8,42.6,N/A,,Clear,240,2013-02-11 18:53:00
2:53 PM,61.0,28.0,29,29.73,10.0,WSW,21.9,35.7,N/A,,Clear,250,2013-02-11 19:53:00
3:53 PM,60.1,25.0,26,29.74,10.0,West,17.3,27.6,N/A,,Mostly Cloudy,260,2013-02-11 20:53:00
4:53 PM,57.0,21.9,26,29.74,10.0,WSW,16.1,32.2,N/A,,Clear,250,2013-02-11 21:53:00
5:53 PM,55.0,19.0,24,29.77,10.0,WSW,23.0,36.8,N/A,,Clear,250,2013-02-11 22:53:00
6:53 PM,53.1,21.0,29,29.81,10.0,West,15.0,27.6,N/A,,Clear,270,2013-02-11 23:53:00
7:53 PM,50.0,24.1,36,29.85,10.0,WSW,13.8,27.6,N/A,,Clear,250,2013-02-12 00:53:00
8:53 PM,46.0,27.0,47,29.88,10.0,WNW,11.5,19.6,N/A,,Clear,300,2013-02-12 01:53:00
9:53 PM,45.0,25.0,46,29.92,10.0,West,20.7,29.9,N/A,,Overcast,260,2013-02-12 02:53:00
10:53 PM,44.1,26.1,49,29.93,10.0,West,13.8,23.0,N/A,,Overcast,260,2013-02-12 03:53:00
11:53 PM,43.0,26.1,51,29.95,10.0,West,12.7,25.3,N/A,,Overcast,280,2013-02-12 04:53:00